Aérodrome :
LOGIN :

S'inscrire | Disclaimer

   EN    FR    IT 

 










Légende :    VFR   VFR Marginal   IFR   IFR Intensif   IFR Très Intensif
Visi : 
Plafond : 
>= 8 km
>= 3000ft
5 à 8 km
1000 à 3000 ft
1500m à 5 km
500 à 1000 ft
800 à 1500m
200 à 500 ft
< 800m
< 200 ft
Symboles :   Orages  Brouillard  Fortes neiges  Fortes précipitations  Vent > 20 kt
SIGMETs :   Divers  Orages  Givrage  Turbulence  Onde Orograph.  Cendres Volcan.







- Altitude de l'aérodrome : 782 ft
- Code IATA : BGY


LIME - Orio al Serio International - Bergamo

DERNIER METAR :
  • 162020Z 33004KT 9999 -RA BKN035 08/06 Q1018 NOSIG

METARs EXPIRÉS :
  • 161950Z 32004KT 8000 -RA BKN030 08/06 Q1018 NOSIG
  • 161920Z 31003KT 280V340 8000 -RA BKN035 08/05 Q1018 NOSIG
  • 161850Z 21004KT 190V260 9999 BKN035 09/05 Q1017 NOSIG
  • 161820Z 23004KT 9999 BKN040 10/04 Q1017 NOSIG
  • 161750Z 26003KT 9999 BKN060 09/03 Q1017 NOSIG

TAF TAF LIME
Valide du 16 à 18h jusqu'au 17 à 18h UTC


161700Z 1618/1718 VRB05KT 9999 BKN040
TEMPO 1622/1716 4000 DZ
Pas de NOTAMs connus pour ce terrain.



MET'MAP, la Météo Aéronautique d'un coup d'oeil ! - Copyright ORBIFLY Décembre 2007 - Disclaimer

ORBIFLY MET'MAP TEAM :

Programmation & Développement : Alexandra Zaïnal
Conception & Développement : Baudouin d'Aumeries
Co-Programmation & Développement : Marc-Olivier Méhu
Soutien technique & logistique : Manuel Goepfert

Contact : metmap@orbifly.com




SOURCES & CREDITS :

   NOAA